Location: El Águila
(10.4167°N, 66.7167°W)
Time: 20:51:18
(UTC+00:00)

CZ-3C R/B - Visible Passes

Search period start: 30 March 2023 00:00
Search period end: 09 April 2023 00:00
Orbit: 267 x 32260 km, 19.9° (Epoch: 29 March)

Date Brightness Start Highest point End Pass type
(mag) Time Alt. Az. Time Alt. Az. Time Alt. Az.
31 Mar 5.9 04:37:51 10° W 06:26:03 45° WNW 13:10:53 10° SSE visible
31 Mar 6.2 22:59:22 10° SW 23:13:52 62° SE 07:40:19 10° E visible
02 Apr 6.5 03:33:11 10° W 05:23:29 59° WNW 12:13:10 10° SE visible
02 Apr 5.8 22:01:24 10° SSW 22:12:12 47° SE 06:35:39 10° E visible
04 Apr 7.1 02:30:11 10° W 04:14:09 73° WNW 11:14:02 10° ESE visible
04 Apr 5.5 21:03:02 10° SSW 03:42:50 34° ENE 05:25:08 10° E visible
06 Apr 7.3 01:27:49 10° WSW 02:28:03 84° NNW 10:13:23 10° ESE visible
06 Apr 5.2 20:04:54 10° SSE 02:41:13 20° ENE 04:01:02 10° E visible
07 Apr 8.7 06:41:17 10° WNW 07:58:25 19° WNW 10:23:12 10° WNW visible
08 Apr 7.1 00:25:33 10° WSW 00:56:01 89° SSE 09:11:00 10° ESE visible
